EHI
14 12 9 7 6 4 4 5 5 3 3 1 0 0 0 0 0 0 1 2 3 4 5 8 9 8 8 8 7 6 9 11 9 7 5 3 1 0 0 0 0 1 2
13 11 8 7 6 4 3 4 3 2 1 0 0 0 0 0 0 0 0 1 1 1 3 6 8 8 7 7 7 7 8 11 10 8 6 4 2 1 0 0 0 1 2
9 7 5 5 5 3 2 1 1 0 0 0 0 0 0 0 0 0 0 0 0 0 1 3 5 6 7 7 7 7 8 9 11 10 7 4 3 2 0 0 0 1 1
5 4 3 3 3 2 1 0 0 0 0 0 0 0 0 0 0 0 0 0 0 0 1 2 2 3 5 6 6 6 7 8 10 10 8 4 2 3 2 1 1 1 1
5 4 2 1 1 1 1 0 0 0 0 0 0 0 0 0 0 0 0 0 0 0 0 0 0 1 3 5 6 5 6 8 9 9 7 3 2 2 2 1 1 0 0
7 4 1 0 0 0 0 0 0 0 0 0 0 0 0 0 0 0 0 0 0 0 0 0 0 0 2 4 4 4 5 7 8 7 6 4 2 1 1 1 0 0 0
6 4 1 0 0 0 0 0 0 0 0 0 0 0 0 0 0 0 0 0 0 0 0 0 0 0 0 1 2 2 3 5 6 6 6 5 3 1 0 0 0 0 0
4 3 1 0 0 0 0 0 0 0 0 0 0 0 0 0 0 0 0 0 0 0 0 0 0 0 0 0 0 1 1 2 4 5 5 4 2 1 0 0 0 0 0
2 2 2 1 0 0 0 0 0 0 0 0 0 0 0 0 0 0 0 0 0 0 0 0 0 0 0 0 0 0 0 1 2 2 3 2 2 1 2 1 1 0 0
2 2 2 1 0 0 0 0 0 0 0 0 0 0 0 0 0 0 0 0 0 0 0 0 0 0 0 0 0 0 0 0 0 0 1 1 1 2 2 2 2 1 0
3 3 3 2 0 0 0 0 0 0 0 0 0 0 0 0 0 0 0 0 0 0 0 0 0 0 0 0 0 0 0 0 0 0 0 0 1 1 1 1 1 1 0
4 4 4 3 1 0 0 0 0 0 0 0 0 0 0 0 0 0 0 0 0 0 0 0 0 0 0 0 0 0 0 0 0 0 0 0 0 0 0 0 0 0 0
4 4 4 3 2 1 0 0 0 0 0 0 0 0 0 0 0 0 0 0 0 0 0 0 0 0 0 0 0 0 0 0 0 0 0 0 0 0 0 0 0 0 0
3 3 3 3 3 1 1 0 0 0 0 0 0 0 0 0 0 0 0 0 0 0 0 0 0 0 0 0 0 0 0 0 0 0 0 0 0 0 0 0 0 0 0
3 3 3 3 3 3 2 1 0 0 0 0 0 0 0 0 0 0 0 0 0 0 0 0 0 0 0 0 0 0 0 0 0 0 0 0 0 0 0 0 0 0 0
3 3 3 3 3 3 3 1 0 0 0 0 0 0 0 0 0 0 0 0 0 0 0 0 0 0 0 0 0 0 0 0 0 0 0 0 0 0 0 0 0 0 0
3 3 3 3 3 3 2 2 1 0 0 0 0 0 0 0 0 0 0 0 0 0 0 0 0 0 0 0 0 0 0 0 0 0 0 0 0 0 0 0 0 0 0
3 3 3 3 2 1 1 2 2 1 0 0 0 0 0 0 0 0 0 0 0 0 0 0 0 0 0 0 0 0 0 0 0 0 0 0 0 0 0 0 0 0 0
2 2 2 2 1 0 0 1 2 2 1 0 0 0 0 0 0 0 0 0 0 0 0 0 0 0 0 0 0 0 0 0 0 0 0 0 0 0 0 0 0 0 0
1 1 1 1 0 0 0 0 1 2 2 1 0 0 0 0 0 0 0 0 0 0 0 0 0 0 0 0 0 0 0 0 0 0 0 0 0 0 0 0 0 0 0
0 0 0 0 0 1 1 0 1 2 2 1 0 0 0 0 0 0 0 0 0 0 0 0 0 0 0 0 0 0 0 0 0 0 0 0 0 0 0 0 0 0 0
0 0 0 0 0 1 1 0 1 1 1 0 0 0 0 0 0 0 0 0 0 0 0 0 0 0 0 0 0 0 0 0 0 0 0 0 0 0 0 0 0 0 0
0 0 0 0 0 1 1 0 0 0 0 0 0 0 0 0 0 0 0 0 0 0 0 0 0 0 0 0 0 0 0 0 0 0 0 0 0 0 0 0 0 0 0
0 0 0 0 0 0 0 0 0 0 0 0 0 0 0 0 0 0 0 0 0 0 0 0 0 0 0 0 0 0 0 0 0 0 0 0 0 0 0 0 0 0 0
0 0 0 0 0 0 0 0 0 0 0 0 0 0 0 0 0 0 0 0 0 0 0 0 0 0 0 0 0 0 0 0 0 0 0 0 0 0 0 0 0 0 0
0 0 0 0 0 0 0 0 0 0 0 0 0 0 0 0 0 0 0 0 0 0 0 0 0 0 0 0 0 0 0 0 0 0 0 0 0 0 0 0 0 0 0
Wind_Speed
2 1 1 1 1 1 1 2 2 2 3 3 3 3 4 4 4 4 3 8 9 10 10 10 11 12 12 12 12 13 13 15 15 15 15 15 15 14 14 14 14 14 15
2 1 1 1 1 1 1 1 2 2 2 2 3 3 4 4 4 4 3 5 8 9 10 10 10 11 11 12 12 12 13 14 15 15 15 16 16 15 15 15 15 15 15
2 1 1 1 1 1 1 1 1 2 2 2 3 3 3 3 4 4 4 3 4 8 10 10 10 11 11 12 12 13 13 13 14 14 15 15 15 16 15 15 15 15 15
1 1 0 1 1 1 0 1 1 2 2 2 3 3 3 3 4 4 4 3 3 3 5 8 9 11 10 11 12 13 13 13 13 14 15 15 15 16 16 16 15 15 16
1 1 0 1 1 1 1 1 1 1 2 3 3 3 3 3 3 4 4 4 3 3 3 5 9 11 11 12 13 14 14 14 13 14 15 15 15 15 16 16 16 15 15
1 1 1 1 1 1 1 1 1 2 2 2 3 3 3 4 3 3 3 3 3 4 4 4 4 6 10 12 13 13 14 14 13 13 14 14 14 15 16 16 16 16 16
1 1 1 1 1 0 1 1 1 2 2 1 1 3 4 3 3 3 2 3 3 4 3 4 3 3 4 9 11 12 13 13 13 13 14 13 13 13 15 15 16 17 16
1 1 1 0 0 0 1 2 1 1 2 1 0 1 3 4 3 3 2 3 3 3 3 4 4 4 4 3 6 12 13 13 13 13 13 12 12 13 13 14 14 15 16
1 1 1 1 0 0 0 1 1 0 1 2 0 1 0 3 4 3 3 3 3 3 4 3 4 4 5 4 4 8 11 10 13 13 13 11 11 13 14 14 13 14 15
1 1 0 0 0 0 0 1 0 0 0 1 2 1 2 2 2 3 4 3 3 4 4 4 4 4 4 4 5 8 9 9 11 12 13 12 12 12 13 15 15 15 15
0 1 0 0 0 0 1 1 1 1 1 1 1 1 1 1 1 2 4 4 4 3 3 4 3 3 4 4 4 6 8 9 9 10 11 11 11 12 13 13 15 15 16
1 0 0 0 0 1 1 1 1 1 1 1 1 1 1 1 2 2 3 4 4 4 4 3 3 3 3 3 5 6 8 8 8 9 9 10 10 11 12 13 14 14 14
1 2 1 1 1 1 1 1 1 1 1 1 2 2 2 2 2 2 2 3 3 4 3 3 3 3 3 2 3 6 6 6 7 8 8 9 9 10 11 11 12 12 12
3 2 2 1 1 1 1 1 1 1 1 1 2 2 2 3 2 2 2 2 3 3 3 4 3 3 3 2 4 6 4 7 7 7 8 9 9 9 10 11 11 11 11
2 1 1 1 1 1 1 1 1 1 1 2 2 2 2 3 2 3 3 2 2 3 4 4 3 4 3 3 4 3 3 6 7 7 8 8 9 9 10 10 10 10 11
2 1 1 1 1 1 1 1 1 2 2 2 2 2 3 3 3 2 2 2 3 3 3 3 3 4 4 3 4 3 4 7 7 8 8 8 9 10 10 11 11 11 11
2 2 2 1 2 2 1 1 2 2 2 2 3 3 4 3 2 2 2 2 2 2 3 4 3 4 3 3 3 3 3 3 3 7 8 8 8 9 10 11 12 12 12
2 2 2 1 1 1 1 1 2 2 2 3 3 3 4 3 3 2 2 2 2 3 3 5 4 3 4 3 3 3 3 3 3 5 6 7 8 9 10 10 11 11 11
2 2 2 1 2 1 1 1 1 2 2 3 3 3 4 3 3 3 3 3 2 2 2 3 5 3 3 3 3 3 3 2 3 4 6 7 8 9 8 9 10 10 11
2 2 2 2 1 1 1 2 2 2 3 3 4 4 4 4 4 4 4 4 3 3 3 3 4 4 4 4 2 2 3 2 3 3 4 4 5 6 7 8 9 10 10
2 1 1 1 1 1 1 1 2 2 3 4 4 4 4 5 6 5 4 4 3 3 3 3 4 3 4 3 3 2 2 3 3 2 2 2 2 2 3 6 8 9 10
2 1 1 1 1 2 3 3 2 2 3 3 4 5 5 4 5 6 7 7 5 4 4 3 4 4 5 4 3 2 2 1 3 2 1 3 2 3 3 3 6 8 9
2 1 1 1 1 3 4 4 3 1 2 3 4 4 4 4 5 4 6 7 6 6 6 4 4 6 5 5 3 3 2 3 4 3 1 3 2 3 4 4 7 8 9
1 1 1 2 2 3 4 4 4 2 2 3 4 4 3 5 5 4 5 5 6 6 6 4 5 6 6 5 4 4 4 3 4 3 3 3 3 3 4 3 6 8 9
2 2 2 2 2 4 4 4 3 1 2 4 4 3 3 4 6 6 4 5 6 6 6 6 6 6 7 7 4 1 1 1 3 3 2 2 2 2 3 3 4 5 6
2 2 2 2 2 3 3 2 1 0 2 3 4 4 5 5 7 7 3 3 5 6 6 6 6 6 5 5 4 3 2 2 2 3 2 1 2 1 2 2 2 2 2
Wind_Direction
193 213 236 233 234 234 238 247 251 262 263 268 267 271 271 261 255 250 253 247 240 236 237 238 234 232 232 229 225 225 224 222 219 218 216 214 211 213 214 213 211 210 209
184 193 235 249 249 248 249 242 249 258 262 267 274 274 274 273 263 258 247 248 244 239 239 242 242 241 236 235 233 231 229 229 226 222 220 216 214 214 215 216 214 211 209
167 170 196 246 262 272 297 292 300 297 293 295 290 280 271 272 269 265 255 241 242 243 241 241 241 241 240 238 236 235 233 230 228 226 223 220 217 217 217 217 215 212 209
125 116 141 261 272 284 289 283 290 301 297 297 285 279 274 270 267 266 267 258 248 252 250 246 246 246 246 243 243 240 239 235 231 229 226 224 221 219 217 217 217 214 212
117 116 143 295 320 333 313 296 313 274 285 292 282 271 267 266 266 270 271 268 255 247 243 250 254 255 251 247 248 246 242 239 236 234 231 229 226 221 219 218 217 217 215
122 123 112 2 17 10 332 321 296 286 264 267 285 291 276 267 263 259 263 270 265 260 251 248 251 259 257 256 254 251 246 243 241 238 234 231 230 226 223 219 216 216 217
125 118 78 34 19 17 307 314 295 306 294 310 324 311 302 286 269 260 260 266 270 271 262 251 244 245 258 260 259 256 252 244 240 238 234 230 230 228 225 220 217 215 216
140 133 123 113 349 6 348 330 332 322 301 329 114 327 324 326 310 286 270 264 274 276 269 263 247 241 248 250 254 256 254 248 243 239 235 230 229 225 223 222 220 220 218
165 140 139 126 102 144 280 298 308 104 292 303 181 152 255 278 303 305 292 286 290 281 278 269 251 245 242 241 247 252 250 248 245 244 241 233 228 223 222 221 220 221 222
193 158 149 140 167 184 275 304 4 258 185 299 307 251 214 215 254 302 311 306 296 285 281 278 262 252 244 240 241 243 245 246 246 243 242 235 228 225 225 223 221 222 222
69 93 50 42 357 297 289 301 314 298 205 213 247 276 290 283 234 239 291 309 313 291 283 278 268 261 250 242 239 238 241 242 243 242 242 237 232 229 228 225 224 223 224
306 330 314 313 287 292 294 287 280 269 246 232 236 223 223 248 261 243 263 290 301 297 293 284 277 269 256 246 250 252 245 241 240 241 239 239 240 238 234 230 228 227 227
269 260 242 252 257 262 264 272 272 269 251 241 247 246 236 235 230 223 243 271 286 292 300 295 283 275 270 261 266 263 252 246 240 235 236 237 238 240 239 234 234 232 232
238 233 226 227 248 269 286 294 294 285 281 266 272 266 259 258 244 229 226 248 295 301 304 293 294 278 278 272 272 269 256 248 245 241 236 237 237 238 237 234 233 235 236
239 219 220 224 261 279 281 282 297 296 297 279 277 279 275 270 265 256 235 216 223 288 301 296 296 292 284 273 272 265 261 254 248 240 236 234 236 240 239 233 230 230 233
241 218 224 224 239 263 275 270 275 285 300 291 283 290 287 279 279 274 257 239 217 221 267 280 274 285 290 290 287 272 266 267 252 243 236 234 236 238 237 236 234 234 234
222 215 220 227 243 263 278 274 283 289 297 298 300 290 288 284 289 286 277 265 246 214 251 281 275 287 285 282 293 280 269 258 255 249 242 240 241 240 239 238 236 236 234
226 225 224 231 244 257 260 254 285 304 291 294 295 297 296 302 302 289 280 272 263 241 230 275 292 296 288 279 277 280 279 271 261 263 254 249 249 245 242 240 238 235 233
241 235 223 229 238 250 261 258 260 280 287 288 291 289 289 298 297 287 279 276 272 273 246 257 281 283 282 286 291 286 278 276 269 261 255 255 256 251 246 242 238 236 233
240 243 230 228 232 240 245 266 277 286 295 296 292 283 281 273 271 276 277 272 273 282 278 274 280 288 284 285 272 272 292 281 277 277 270 264 260 257 254 250 243 238 231
258 253 243 262 260 253 258 280 286 290 294 299 299 291 284 279 275 272 276 271 269 272 279 281 284 291 294 298 278 259 272 289 285 262 268 273 263 262 264 260 253 242 232
284 279 257 243 295 295 294 296 288 285 292 294 295 299 298 293 300 302 297 286 268 263 271 270 279 283 282 280 271 260 263 294 294 277 237 277 246 260 260 247 249 243 237
270 264 257 234 280 292 298 301 307 280 287 290 291 298 310 318 319 311 310 311 301 284 260 242 264 274 277 278 277 277 262 248 256 255 231 277 266 261 261 254 243 245 241
264 247 253 242 263 288 308 315 310 300 293 294 295 290 291 304 314 319 317 316 308 301 287 266 252 265 272 273 251 248 249 263 269 260 203 249 269 263 274 266 253 249 246
264 255 247 246 265 287 303 319 325 317 316 313 315 317 305 301 312 322 321 315 316 314 316 312 295 287 285 282 262 239 269 265 284 281 225 213 254 272 280 275 267 253 247
240 252 278 272 268 280 291 294 289 308 317 315 321 324 322 320 324 327 318 309 308 304 320 329 329 324 314 306 283 225 227 244 261 279 265 216 257 280 300 285 271 264 259